Weather History for Morristown, NJ

Change the Weather History Date:

Sunday, September 22, 2013

  Actual Average Record
Temperature  
Mean Temperature 62 °F -  
Max Temperature 68 °F 73 °F 92 °F (1931)
Min Temperature 55 °F 51 °F 35 °F (1997)
Degree Days  
Heating Degree Days 4    
Growing Degree Days 12 (Base 50)    
Moisture  
Dew Point 53 °F    
Average Humidity 75    
Maximum Humidity 94    
Minimum Humidity 46    
Precipitation  
Precipitation 0.12 in - - ()
Sea Level Pressure  
Sea Level Pressure 29.76 in    
Wind  
Wind Speed 3 mph (NNW)    
Max Wind Speed 13 mph    
Max Gust Speed 25 mph    
Visibility 10 miles    
Events Rain    
Averages and records for this station are not official NWS values.
T = Trace of Precipitation, MM = Missing Value Source: NWS Daily Summary

Daily Weather History Graph

Daily Weather History Graph

Search for Another Location

Airport:

Trip Planner

Search our weather history database for the weather conditions in past years. The results will help you decide how hot, cold, wet, or windy it might be!

Date:

Astronomy

Sep. 22, 2013 Rise Set
Actual Time 6:45 AM EDT 6:54 PM EDT
Civil Twilight 6:18 AM EDT 7:21 PM EDT
Nautical Twilight 5:45 AM EDT 7:53 PM EDT
Astronomical Twilight 5:13 AM EDT 8:26 PM EDT
Moon 8:41 PM EDT (9/22) 10:04 AM EDT (9/22)
Length of Visible Light 13h 03m
Length of Day
12h 09m
Waning Gibbous, 89% of the Moon is Illuminated
Sep 22
Waning Gibbous
Sep 26
Last Quarter
Oct 4
New
Oct 11
First Quarter
Oct 18
Full

Hourly Weather History & Observations

Time (EDT) Temp. Dew Point Humidity Pressure Visibility Wind Dir Wind Speed Gust Speed Precip Events Conditions
12:15 AM 66.2 °F 60.8 °F 83% 29.69 in 10.0 mi NW 3.5 mph - 0.05 in Rain Light Rain
12:35 AM 64.4 °F 60.8 °F 88% 29.68 in 10.0 mi Calm Calm - 0.07 in Rain Rain
12:55 AM 64.4 °F 60.8 °F 88% 29.69 in 7.0 mi Calm Calm - 0.01 in Rain Rain
1:15 AM 64.4 °F 60.8 °F 88% 29.69 in 7.0 mi Calm Calm - 0.03 in Rain Rain
1:35 AM 64.4 °F 60.8 °F 88% 29.68 in 5.0 mi Calm Calm - 0.07 in Rain Rain
1:55 AM 64.4 °F 60.8 °F 88% 29.68 in 5.0 mi Calm Calm - 0.01 in Rain Rain
2:15 AM 64.4 °F 60.8 °F 88% 29.69 in 10.0 mi Calm Calm - 0.02 in Rain Light Rain
2:35 AM 62.6 °F 60.8 °F 94% 29.69 in 10.0 mi Calm Calm - 0.03 in Rain Rain
2:55 AM 62.6 °F 60.8 °F 94% 29.68 in 10.0 mi Calm Calm - N/A   Overcast
3:15 AM 64.4 °F 60.8 °F 88% 29.68 in 10.0 mi Calm Calm - N/A   Overcast
3:35 AM 64.4 °F 60.8 °F 88% 29.67 in 10.0 mi Calm Calm - N/A   Overcast
3:55 AM 64.4 °F 60.8 °F 88% 29.68 in 10.0 mi Calm Calm - N/A   Overcast
4:15 AM 62.6 °F 60.8 °F 94% 29.68 in 10.0 mi Calm Calm - N/A   Overcast
4:35 AM 62.6 °F 60.8 °F 94% 29.70 in 10.0 mi SSW 3.5 mph - N/A   Overcast
4:55 AM 62.6 °F 60.8 °F 94% 29.71 in 10.0 mi Calm Calm - N/A   Overcast
5:15 AM 62.6 °F 60.8 °F 94% 29.71 in 10.0 mi Calm Calm - N/A Rain Light Rain
5:35 AM 62.6 °F 60.8 °F 94% 29.71 in 10.0 mi Calm Calm - N/A   Overcast
5:55 AM 62.6 °F 60.8 °F 94% 29.71 in 10.0 mi Calm Calm - N/A   Overcast
6:15 AM 62.6 °F 59.0 °F 88% 29.72 in 10.0 mi WNW 3.5 mph - N/A   Overcast
6:35 AM 62.6 °F 59.0 °F 88% 29.73 in 10.0 mi Calm Calm - 0.01 in   Overcast
6:45 AM 60.8 °F 57.2 °F 88% 29.73 in 10.0 mi Calm Calm - N/A   Mostly Cloudy
7:45 AM 59.0 °F 53.6 °F 82% 29.77 in 10.0 mi NNW 4.6 mph - N/A   Partly Cloudy
8:45 AM 59.0 °F 51.8 °F 77% 29.70 in 10.0 mi North 4.6 mph - N/A   Clear
9:45 AM 60.8 °F 48.2 °F 63% 29.79 in 10.0 mi NNE 9.2 mph - N/A   Clear
10:45 AM 64.4 °F 50.0 °F 59% 29.80 in 10.0 mi North 5.8 mph - N/A   Clear
11:45 AM 66.2 °F 48.2 °F 52% 29.79 in 10.0 mi North 10.4 mph 18.4 mph N/A   Scattered Clouds
12:45 PM 68.0 °F 46.4 °F 46% 29.80 in 10.0 mi NW 9.2 mph 25.3 mph N/A   Scattered Clouds
1:45 PM 64.4 °F 44.6 °F 49% 29.80 in 10.0 mi NNW 10.4 mph 23.0 mph N/A   Scattered Clouds
2:45 PM 64.4 °F 46.4 °F 52% 29.80 in 10.0 mi NW 11.5 mph 19.6 mph N/A   Mostly Cloudy
3:45 PM 64.4 °F 44.6 °F 49% 29.80 in 10.0 mi North 11.5 mph 20.7 mph N/A   Mostly Cloudy
4:45 PM 64.4 °F 46.4 °F 52% 29.81 in 10.0 mi North 5.8 mph 13.8 mph N/A   Mostly Cloudy
5:45 PM 62.6 °F 44.6 °F 52% 29.83 in 10.0 mi NNW 5.8 mph 13.8 mph N/A   Mostly Cloudy
6:45 PM 60.8 °F 44.6 °F 55% 29.85 in 10.0 mi NNW 9.2 mph - N/A   Mostly Cloudy
7:45 PM 57.2 °F 44.6 °F 63% 29.87 in 10.0 mi North 9.2 mph - N/A   Scattered Clouds
8:45 PM 55.4 °F 44.6 °F 67% 29.90 in 10.0 mi North 4.6 mph - N/A   Scattered Clouds
9:45 PM 55.4 °F 42.8 °F 63% 29.92 in 10.0 mi North 9.2 mph 15.0 mph N/A   Scattered Clouds
10:55 PM 57.2 °F 39.2 °F 51% 29.93 in 10.0 mi NNW 12.7 mph 16.1 mph N/A   Clear
11:15 PM 57.2 °F 39.2 °F 51% 29.93 in 10.0 mi NNW 11.5 mph 19.6 mph N/A   Clear
11:35 PM 55.4 °F 39.2 °F 54% 29.93 in 10.0 mi NW 11.5 mph 17.3 mph N/A   Clear
11:55 PM 55.4 °F 39.2 °F 54% 29.94 in 10.0 mi NNW 8.1 mph - N/A   Clear